DELTA 1 DEB, 10655

Orbit data source: Space-Track

DELTA 1 DEB, 10655 is space debris in SSO originally from a launch on Thu, 29 Jul 1976 UTC launched from the Air Force Western Test Range (AFWTR). Debris objects in space refer to the collection of defunct objects orbiting the Earth. Examples of debris include non-operational satellites, rocket bodies, and fragments generated from explosions, collisions, or faulty payload assembly.

Loading next visibility...
Identifier
10655, 1976-077R
Orbit
SSO
Country
Flag of USUS
Related business
Manufacturer
Unknown
Mission
Spacecraft
Bus & Motor
Unknown
Mass
Unknown
Launch date (UTC)
1976-07-29 (50 years ago)
Launch vehicle
Unknown
Launch site
Air Force Western Test Range (AFWTR)
Object type
Payload
Rocket body
Debris
Shape & HBR
Unknown shape, 0.2 m
Radar Cross Section
Medium (>0.1 m² and <1 m²)

Expand to show TLE details & history
Last TLE update: 16 hours ago

TLE from 16 hours ago
0 DELTA 1 DEB
1 10655U 76077R   26126.21326939 -.00000045  00000-0  34993-5 0  9999
2 10655 102.7605 221.5139 0275209 185.8184 203.4783 12.11383501201176
Epoch: 2026-05-06T05:07Z
TLE epoch observation values (Epoch: 2026-05-06T05:07:06.475Z)
Latitude
27.36344°
Longitude
-86.03935°
Altitude
1,836.377 km
Speed
6.88 km/s
True Right ascension
14h 19m 15s
True Declination
27° 14' 30"
Sunlit
Object was in full shadow at epoch
Visualization orbit readout
Latitude
Unknown
Longitude
Unknown
Altitude
Unknown
Speed
Unknown
Apparent Right ascension
Unknown
Apparent Declination
Unknown
Sunlit
N/A
Visualization observer readout
Local Sidereal Time
04:51:33
Azimuth
Unknown
Elevation
Unknown
Doppler factor
Unknown
Orbital elements
Apogee altitude
1,848.284 km
Perigee altitude
1,407.614 km
Semi-major axis
8,006.086 km
Eccentricity
0.02752
Inclination
102.7605°
RAAN
221.5139°
Arg. of periapsis
185.8184°
True anomaly
202.26044°
Mean anomaly
203.4783°
Eccentric anomaly
202.86559°
Mean motion
3.02979 °/min
Orbital period
118.82 mins
BSTAR
0.0000034993
Loading maneuver chart data...
Computing Atmospheric mass density...
Loading historical data...
Loading historical data...
Loading historical data...
Loading historical data...
Loading historical data...
Loading historical data...
Loading historical data...

Documentation

Showing up to 5 results
|